OneWeb SL0040

operational
NORAD ID: 45147 Int'l Des: 2020-008 Owner: ONEWEB Country: UK Constellation: oneweb
LEOCIRCULARPOLARONEWEB_TYPE

Über OneWeb SL0040

Beschreibung wird geladen...

Live-Position

3D-Globus wird geladen...

Nächste Überflüge

Höhenverlauf

Altitude vs Time

uPlot chart will show altitude changes over time

Zweizeiliger Elementsatz

1 45147U 20008S 25352.76947025 .00000294 00000-0 80508-3 0 9997
2 45147 87.8801 72.2526 0001827 103.8298 256.3032 13.10369335284232
Epoch: 18. Dez. 2025 • Age: 9 hours

Aktueller Status

Höhe 1232.5 km
Geschwindigkeit 7.24 km/s
Subsatellitenpunkt -26.58°S, 69.3°W
Startdatum 6. Feb. 2020
Alter 5.8 years
Typ internet

Technische Details

Klassifizierung Payload
Masse 148.00 kg
Trockenmasse 140.00 kg
Gesamtmasse 148.00 kg
Länge 1.30 m
Durchmesser 1.00 m
Spannweite 5.00 m
Form Trapezoid+2 pan
Hersteller ONEWUS
Bus-Typ ARROW
Phasenstatus In Orbit
Besitzer/Staat ONEWEB/UK

Große Konstellationen

Loading constellations...